This is the latest recevied weather packets stored in our database for station/object OE6ACM-10. If no packets are shown the sender has not sent any weather packets the latest 10 day(s).
| Time | Temp. | Humidity | Pressure | Rain* | Wind** | Luminosity | Snow |
|---|---|---|---|---|---|---|---|
| 1778091795 | 27.78° C | 100% | 917.5 hPa | - | - | - | - |
| 1778091495 | 27.78° C | 100% | 917.5 hPa | - | - | - | - |
| 1778091195 | 28.33° C | 100% | 917.4 hPa | - | - | - | - |
| 1778090895 | 28.33° C | 100% | 917.3 hPa | - | - | - | - |
| 1778090595 | 28.33° C | 100% | 917.3 hPa | - | - | - | - |
| 1778090295 | 28.33° C | 100% | 917.2 hPa | - | - | - | - |
| 1778089995 | 28.33° C | 100% | 917.2 hPa | - | - | - | - |
| 1778089695 | 28.33° C | 100% | 917.2 hPa | - | - | - | - |
| 1778089395 | 28.33° C | 100% | 917.1 hPa | - | - | - | - |
| 1778089095 | 28.33° C | 100% | 917.1 hPa | - | - | - | - |
| 1778088795 | 28.33° C | 100% | 917.3 hPa | - | - | - | - |
| 1778088495 | 28.89° C | 100% | 917.2 hPa | - | - | - | - |
| 1778088195 | 28.89° C | 100% | 917.2 hPa | - | - | - | - |
| 1778087895 | 28.89° C | 100% | 917.3 hPa | - | - | - | - |
| 1778087562 | 28.89° C | 100% | 917.2 hPa | - | - | - | - |
| 1778087262 | 29.44° C | 100% | 917.1 hPa | - | - | - | - |
| 1778086962 | 29.44° C | 100% | 917.1 hPa | - | - | - | - |
| 1778086662 | 29.44° C | 100% | 917.1 hPa | - | - | - | - |
| 1778086362 | 29.44° C | 100% | 917.1 hPa | - | - | - | - |
| 1778086062 | 30° C | 100% | 917.2 hPa | - | - | - | - |
| 1778085762 | 30° C | 100% | 917.1 hPa | - | - | - | - |
| 1778085462 | 30° C | 100% | 917.2 hPa | - | - | - | - |
| 1778085162 | 30° C | 100% | 917.2 hPa | - | - | - | - |
| 1778084862 | 29.44° C | 100% | 917.3 hPa | - | - | - | - |
| 1778084562 | 30.56° C | 100% | 917.4 hPa | - | - | - | - |
* Rain since midnight (hover to see other rain measurements)
** Current wind speed in m/s (hover to see current wind gust speed)